Darstellungsparameter: Aktuell verwendete Einstellungen:
Skalierung der Graphiken ... ?
xyx+y,   Skalierungsfaktor:      Skalierung: Modus: x, Faktor: 1
Darstellungszeitraum ... ?
Vom - - bis: - -   Zeitraum: 10.11.2008 - 16.11.2008
Min/Max/Avg-Anzeige ... ?
Zeige MMA aktuell
Zeige MMA Monat
Zeige MMA alles
Zeige --A aktuell
Zeige --A Monat
Zeige --A alles
Keine MMA-Anzeige
MMA:
Average (ber die Originaldaten)
MMA-Basis: 17.04.2019 - 19.05.2019
Quicknavigation für Darstellung... ?
Tage:      1T, 2T, 3T, 5T -1T -2T -3T -5T +1T +2T +3T +5T
Wochen: 1W, 2W, 3W -1W -2W -3W +1W +2W +3W
Monate: 1M, 3M, 6M -1M -3M -6M +1M +3M +6M
Jahre:    1J, 3J, 5J, 10J -1J -3J -5J -10J +1J +3J +5J +10J
Nutze für die Darstellung ... ?
Originaldaten oder Mittelwerte auf ...
Stundenbasis Tagesbasis Wochenbasis
Monatsbasis Jahresbasis      Datenbasis: Original-Daten
Darstellen als:
Statistik (Auto) Statistik J:M      Darstellung:
Zur Graphik,    zurück zur Übersicht aller Sensoren.
 
Tabellarische Datenbersicht: ?
 
Sensor: Nr:Datum:Temp:Abs-Feuchte:Windchill:Wind:
Aussen-T/F 1 10-11-2008 00:02:02 12 C 8.95 g/m*3 12 C 0 km/h
2 10-11-2008 00:14:02 12.1 C 8.69 g/m*3 12.1 C 0 km/h
3 10-11-2008 00:26:02 12.3 C 8.58 g/m*3 12.3 C 0 km/h
4 10-11-2008 00:38:02 12.3 C 8.58 g/m*3 12.3 C 0 km/h
5 10-11-2008 00:50:01 12.6 C 8.41 g/m*3 12.6 C 0 km/h
6 10-11-2008 01:02:02 12.9 C 8.34 g/m*3 12.9 C 0 km/h
7 10-11-2008 01:14:02 13 C 8.05 g/m*3 13 C 0 km/h
8 10-11-2008 01:26:01 13 C 7.94 g/m*3 13 C 0 km/h
9 10-11-2008 01:38:02 13 C 7.83 g/m*3 13 C 0 km/h
10 10-11-2008 01:50:02 13.1 C 7.53 g/m*3 13.1 C 0 km/h
11 10-11-2008 02:02:01 13 C 7.48 g/m*3 13 C 0 km/h
12 10-11-2008 02:14:01 13 C 7.48 g/m*3 13 C 0 km/h
13 10-11-2008 02:26:02 12.9 C 7.55 g/m*3 12.9 C 0 km/h
14 10-11-2008 02:38:01 12.5 C 7.81 g/m*3 12.5 C 0 km/h
15 10-11-2008 02:51:05 12 C 7.99 g/m*3 12 C 0 km/h
16 10-11-2008 03:03:05 11.8 C 8.21 g/m*3 11.8 C 0 km/h
17 10-11-2008 03:15:05 11.2 C 8.51 g/m*3 11.2 C 0 km/h
18 10-11-2008 03:27:05 11.1 C 8.66 g/m*3 11.1 C 0 km/h
19 10-11-2008 03:39:02 11.3 C 8.67 g/m*3 11.3 C 0 km/h
20 10-11-2008 03:51:02 11.6 C 8.52 g/m*3 11.6 C 0 km/h
21 10-11-2008 04:03:03 11.8 C 8.31 g/m*3 11.8 C 0 km/h
22 10-11-2008 04:15:02 11.9 C 8.26 g/m*3 11.9 C 0 km/h
23 10-11-2008 04:27:02 12 C 8.21 g/m*3 12 C 0 km/h
24 10-11-2008 04:39:03 12.3 C 8.25 g/m*3 12.3 C 0 km/h
25 10-11-2008 04:51:02 12.5 C 8.14 g/m*3 12.5 C 0 km/h
Sensor: Nr:Datum:Temp:Abs-Feuchte:Windchill:Wind:
Aussen-T/F 26 10-11-2008 05:03:02 12.5 C 8.14 g/m*3 12.5 C 0 km/h
27 10-11-2008 05:15:02 12.6 C 8.08 g/m*3 12.6 C 0 km/h
28 10-11-2008 05:27:02 12.8 C 8.06 g/m*3 12.8 C 0 km/h
29 10-11-2008 05:39:02 12.9 C 8 g/m*3 12.9 C 0 km/h
30 10-11-2008 05:51:01 13 C 7.83 g/m*3 13 C 0 km/h
31 10-11-2008 06:03:02 13 C 7.83 g/m*3 13 C 0 km/h
32 10-11-2008 06:15:02 13 C 7.83 g/m*3 13 C 0 km/h
33 10-11-2008 06:27:02 13 C 7.83 g/m*3 13 C 0 km/h
34 10-11-2008 06:39:02 13.1 C 7.76 g/m*3 13.1 C 0 km/h
35 10-11-2008 06:51:02 13 C 7.71 g/m*3 13 C 0 km/h
36 10-11-2008 07:03:02 13.1 C 7.76 g/m*3 13.1 C 0 km/h
37 10-11-2008 07:15:02 13.3 C 7.74 g/m*3 13.3 C 0 km/h
38 10-11-2008 07:27:02 13.2 C 7.69 g/m*3 13.2 C 0 km/h
39 10-11-2008 07:39:02 13.1 C 7.87 g/m*3 13.1 C 0 km/h
40 10-11-2008 07:51:02 12.8 C 8.18 g/m*3 12.8 C 0 km/h
41 10-11-2008 08:03:03 12.7 C 8.24 g/m*3 12.7 C 0 km/h
42 10-11-2008 08:15:02 13 C 8.28 g/m*3 13 C 0 km/h
43 10-11-2008 08:27:02 13 C 8.28 g/m*3 13 C 0 km/h
44 10-11-2008 08:39:03 12.8 C 8.4 g/m*3 12.8 C 0 km/h
45 10-11-2008 08:51:02 13 C 8.39 g/m*3 13 C 0 km/h
46 10-11-2008 09:03:01 13 C 8.28 g/m*3 13 C 0 km/h
47 10-11-2008 09:15:02 13 C 8.28 g/m*3 13 C 0 km/h
48 10-11-2008 09:27:03 13.2 C 8.27 g/m*3 13.2 C 0 km/h
49 10-11-2008 09:39:01 13.4 C 8.14 g/m*3 13.4 C 0 km/h
50 10-11-2008 09:51:02 13.5 C 8.07 g/m*3 13.5 C 0 km/h
Sensor: Nr:Datum:Temp:Abs-Feuchte:Windchill:Wind:
Aussen-T/F 51 10-11-2008 10:03:01 13.7 C 8.05 g/m*3 13.7 C 0 km/h
52 10-11-2008 10:15:02 13.7 C 7.93 g/m*3 13.7 C 0 km/h
53 10-11-2008 10:27:02 13.7 C 7.93 g/m*3 13.7 C 0 km/h
54 10-11-2008 10:39:01 13.8 C 7.98 g/m*3 13.8 C 0 km/h
55 10-11-2008 10:51:01 14 C 7.96 g/m*3 14 C 0 km/h
56 10-11-2008 11:03:01 14 C 8.08 g/m*3 14 C 0 km/h
57 10-11-2008 11:15:01 13.8 C 8.22 g/m*3 13.8 C 0 km/h
58 10-11-2008 11:27:01 14 C 8.2 g/m*3 14 C 0 km/h
59 10-11-2008 11:39:01 14.2 C 8.06 g/m*3 14.2 C 0 km/h
60 10-11-2008 11:51:01 14.4 C 8.03 g/m*3 14.4 C 0 km/h
61 10-11-2008 12:03:02 14.7 C 7.93 g/m*3 14.7 C 0 km/h
62 10-11-2008 12:15:02 15.2 C 7.92 g/m*3 15.2 C 0 km/h
63 10-11-2008 12:27:02 15 C 7.82 g/m*3 15 C 0 km/h
64 10-11-2008 12:39:02 15.1 C 7.87 g/m*3 15.1 C 0 km/h
65 10-11-2008 12:51:02 14.9 C 7.9 g/m*3 14.9 C 0 km/h
66 10-11-2008 13:03:01 14.9 C 7.77 g/m*3 14.9 C 0 km/h
67 10-11-2008 13:15:02 15 C 7.69 g/m*3 15 C 0 km/h
68 10-11-2008 13:27:02 14.7 C 7.81 g/m*3 14.7 C 0 km/h
69 10-11-2008 13:39:02 14.8 C 7.85 g/m*3 14.8 C 0 km/h
70 10-11-2008 13:51:02 14.9 C 7.77 g/m*3 14.9 C 0 km/h
71 10-11-2008 14:03:02 15.3 C 7.84 g/m*3 15.3 C 0 km/h
72 10-11-2008 14:15:02 15.3 C 7.57 g/m*3 15.3 C 0 km/h
73 10-11-2008 14:27:02 15.1 C 7.74 g/m*3 15.1 C 0 km/h
74 10-11-2008 14:39:02 15 C 7.82 g/m*3 15 C 0 km/h
75 10-11-2008 14:51:02 14.8 C 7.85 g/m*3 14.8 C 0 km/h
Sensor: Nr:Datum:Temp:Abs-Feuchte:Windchill:Wind:
Aussen-T/F 76 10-11-2008 15:03:01 14.8 C 7.73 g/m*3 14.8 C 0 km/h
77 10-11-2008 15:15:02 14.8 C 7.73 g/m*3 14.8 C 0 km/h
78 10-11-2008 15:27:03 14.8 C 7.73 g/m*3 14.8 C 0 km/h
79 10-11-2008 15:39:01 14.9 C 7.77 g/m*3 14.9 C 0 km/h
80 10-11-2008 15:51:03 14.8 C 7.73 g/m*3 14.8 C 0 km/h
81 10-11-2008 16:03:02 14.8 C 7.73 g/m*3 14.8 C 0 km/h
82 10-11-2008 16:15:03 14.8 C 7.73 g/m*3 14.8 C 0 km/h
83 10-11-2008 16:27:03 14.7 C 7.81 g/m*3 14.7 C 0 km/h
84 10-11-2008 16:39:02 14.6 C 7.76 g/m*3 14.6 C 0 km/h
85 10-11-2008 16:51:02 14.5 C 7.84 g/m*3 14.5 C 0 km/h
86 10-11-2008 17:03:02 14.5 C 7.71 g/m*3 14.5 C 0 km/h
87 10-11-2008 17:15:02 14.6 C 7.63 g/m*3 14.6 C 0 km/h
88 10-11-2008 17:27:02 14.7 C 7.55 g/m*3 14.7 C 0 km/h
89 10-11-2008 17:39:02 14.7 C 7.55 g/m*3 14.7 C 0 km/h
90 10-11-2008 17:51:01 14.9 C 7.65 g/m*3 14.9 C 0 km/h
91 10-11-2008 18:03:02 15.1 C 7.48 g/m*3 15.1 C 0 km/h
92 10-11-2008 18:15:01 15.2 C 7.4 g/m*3 15.2 C 0 km/h
93 10-11-2008 18:27:01 15.2 C 7.4 g/m*3 15.2 C 0 km/h
94 10-11-2008 18:39:02 14.9 C 7.39 g/m*3 14.9 C 0 km/h
95 10-11-2008 18:51:02 15.1 C 7.22 g/m*3 15.1 C 0 km/h
96 10-11-2008 19:03:03 15.1 C 7.1 g/m*3 15.1 C 0 km/h
97 10-11-2008 19:15:02 15.2 C 7.14 g/m*3 15.2 C 0 km/h
98 10-11-2008 19:27:02 15 C 7.05 g/m*3 15 C 0 km/h
99 10-11-2008 19:39:03 15.1 C 7.1 g/m*3 15.1 C 0 km/h
100 10-11-2008 19:51:02 15.2 C 7.14 g/m*3 15.2 C 0 km/h
Sensor: Nr:Datum:Temp:Abs-Feuchte:Windchill:Wind:
Aussen-T/F 101 10-11-2008 20:03:02 15.1 C 7.22 g/m*3 15.1 C 0 km/h
102 10-11-2008 20:15:02 15.3 C 7.31 g/m*3 15.3 C 0 km/h
103 10-11-2008 20:27:02 15.3 C 7.31 g/m*3 15.3 C 0 km/h
104 10-11-2008 20:39:02 15.3 C 7.31 g/m*3 15.3 C 0 km/h
105 10-11-2008 20:51:02 15.4 C 7.36 g/m*3 15.4 C 0 km/h
106 10-11-2008 21:03:02 15.5 C 7.53 g/m*3 15.5 C 0 km/h
107 10-11-2008 21:15:02 15.5 C 7.53 g/m*3 15.5 C 0 km/h
108 10-11-2008 21:27:02 15.6 C 7.58 g/m*3 15.6 C 0 km/h
109 10-11-2008 21:39:02 15.4 C 7.75 g/m*3 15.4 C 0 km/h
110 10-11-2008 21:51:01 15.2 C 8.05 g/m*3 15.2 C 0 km/h
111 10-11-2008 22:03:02 15.3 C 7.97 g/m*3 15.3 C 0 km/h
112 10-11-2008 22:15:02 15.2 C 8.05 g/m*3 15.2 C 0 km/h
113 10-11-2008 22:27:02 15.5 C 7.93 g/m*3 15.5 C 0 km/h
114 10-11-2008 22:39:02 15.7 C 7.63 g/m*3 15.7 C 0 km/h
115 10-11-2008 22:52:02 15.8 C 7.67 g/m*3 15.8 C 0 km/h
116 10-11-2008 23:04:02 15.8 C 7.54 g/m*3 15.8 C 0 km/h
117 10-11-2008 23:16:02 15.9 C 7.58 g/m*3 15.9 C 0 km/h
118 10-11-2008 23:28:02 15.8 C 7.54 g/m*3 15.8 C 0 km/h
119 10-11-2008 23:40:02 15.8 C 7.54 g/m*3 15.8 C 0 km/h
120 10-11-2008 23:52:02 16 C 7.49 g/m*3 16 C 0 km/h
121 11-11-2008 00:04:02 16 C 7.49 g/m*3 16 C 0 km/h
122 11-11-2008 00:16:02 16 C 7.49 g/m*3 16 C 0 km/h
123 11-11-2008 00:28:02 15.8 C 7.67 g/m*3 15.8 C 0 km/h
124 11-11-2008 00:40:02 15.9 C 7.58 g/m*3 15.9 C 0 km/h
125 11-11-2008 00:52:02 16 C 7.49 g/m*3 16 C 0 km/h
Sensor: Nr:Datum:Temp:Abs-Feuchte:Windchill:Wind:
Aussen-T/F 126 11-11-2008 01:04:02 16.1 C 7.4 g/m*3 16.1 C 0 km/h
127 11-11-2008 01:16:02 16.1 C 7.4 g/m*3 16.1 C 0 km/h
128 11-11-2008 01:28:02 15.9 C 7.45 g/m*3 15.9 C 0 km/h
129 11-11-2008 01:40:02 15.7 C 7.49 g/m*3 15.7 C 0 km/h
130 11-11-2008 01:52:02 15.7 C 7.49 g/m*3 15.7 C 0 km/h
131 11-11-2008 02:04:02 15.4 C 7.36 g/m*3 15.4 C 0 km/h
132 11-11-2008 02:16:02 15.2 C 7.4 g/m*3 15.2 C 0 km/h
133 11-11-2008 02:28:02 15.2 C 7.4 g/m*3 15.2 C 0 km/h
134 11-11-2008 02:40:03 15.3 C 7.31 g/m*3 15.3 C 0 km/h
135 11-11-2008 02:52:03 15.2 C 7.27 g/m*3 15.2 C 0 km/h
136 11-11-2008 03:04:03 15.3 C 7.18 g/m*3 15.3 C 0 km/h
137 11-11-2008 03:16:03 15.1 C 7.1 g/m*3 15.1 C 0 km/h
138 11-11-2008 03:28:03 14.9 C 7.14 g/m*3 14.9 C 0 km/h
139 11-11-2008 03:40:03 14.7 C 7.05 g/m*3 14.7 C 0 km/h
140 11-11-2008 03:52:03 14.6 C 7.01 g/m*3 14.6 C 0 km/h
141 11-11-2008 04:04:03 14.4 C 6.92 g/m*3 14.4 C 0 km/h
142 11-11-2008 04:16:03 14.1 C 6.92 g/m*3 14.1 C 0 km/h
143 11-11-2008 04:28:03 14.1 C 6.92 g/m*3 14.1 C 0 km/h
144 11-11-2008 04:40:03 14 C 6.88 g/m*3 14 C 0 km/h
145 11-11-2008 04:52:03 13.6 C 6.94 g/m*3 13.6 C 0 km/h
146 11-11-2008 05:04:03 13.4 C 6.86 g/m*3 13.4 C 0 km/h
147 11-11-2008 05:16:03 13.3 C 6.93 g/m*3 13.3 C 0 km/h
148 11-11-2008 05:28:03 13.4 C 6.97 g/m*3 13.4 C 0 km/h
149 11-11-2008 05:40:03 13.5 C 6.9 g/m*3 13.5 C 0 km/h
150 11-11-2008 05:52:03 13.5 C 6.9 g/m*3 13.5 C 0 km/h
Sensor: Nr:Datum:Temp:Abs-Feuchte:Windchill:Wind:
Aussen-T/F 151 11-11-2008 06:04:03 13.4 C 7.09 g/m*3 13.4 C 0 km/h
152 11-11-2008 06:16:03 13.3 C 7.16 g/m*3 13.3 C 0 km/h
153 11-11-2008 06:28:03 13 C 7.37 g/m*3 13 C 0 km/h
154 11-11-2008 06:40:04 12.7 C 7.57 g/m*3 12.7 C 0 km/h
155 11-11-2008 06:52:04 12.2 C 7.66 g/m*3 12.2 C 0 km/h
156 11-11-2008 07:04:02 12 C 8.1 g/m*3 12 C 0 km/h
157 11-11-2008 07:16:02 12 C 8.21 g/m*3 12 C 0 km/h
158 11-11-2008 07:28:02 12.1 C 8.26 g/m*3 12.1 C 0 km/h
159 11-11-2008 07:40:03 13 C 8.17 g/m*3 13 C 0 km/h
160 11-11-2008 07:52:02 13.3 C 8.09 g/m*3 13.3 C 0 km/h
161 11-11-2008 08:04:01 13.2 C 8.04 g/m*3 13.2 C 0 km/h
162 11-11-2008 08:16:02 13.7 C 7.93 g/m*3 13.7 C 0 km/h
163 11-11-2008 08:28:03 14 C 7.72 g/m*3 14 C 0 km/h
164 11-11-2008 08:40:01 13.7 C 7.82 g/m*3 13.7 C 0 km/h
165 11-11-2008 08:52:02 13.8 C 7.98 g/m*3 13.8 C 0 km/h
166 11-11-2008 09:04:01 13.9 C 8.15 g/m*3 13.9 C 0 km/h
167 11-11-2008 09:16:02 13.5 C 8.19 g/m*3 13.5 C 0 km/h
168 11-11-2008 09:28:02 13.5 C 8.42 g/m*3 13.5 C 0 km/h
169 11-11-2008 09:40:01 13.4 C 8.49 g/m*3 13.4 C 0 km/h
170 11-11-2008 09:52:02 13.7 C 8.41 g/m*3 13.7 C 0 km/h
171 11-11-2008 10:04:01 13.8 C 8.22 g/m*3 13.8 C 0 km/h
172 11-11-2008 10:16:02 13.4 C 7.9 g/m*3 13.4 C 0 km/h
173 11-11-2008 10:28:02 13.4 C 7.79 g/m*3 13.4 C 0 km/h
174 11-11-2008 10:40:01 13.4 C 7.56 g/m*3 13.4 C 0 km/h
175 11-11-2008 10:52:02 13.5 C 7.6 g/m*3 13.5 C 0 km/h
Sensor: Nr:Datum:Temp:Abs-Feuchte:Windchill:Wind:
Aussen-T/F 176 11-11-2008 11:04:01 13.2 C 6.54 g/m*3 13.2 C 0 km/h
177 11-11-2008 11:16:02 12 C 6.5 g/m*3 12 C 0 km/h
178 11-11-2008 11:28:02 11.8 C 6.63 g/m*3 11.8 C 0 km/h
179 11-11-2008 11:40:02 11.6 C 6.55 g/m*3 11.6 C 0 km/h
180 11-11-2008 11:52:02 11.8 C 6.31 g/m*3 11.8 C 0 km/h
181 11-11-2008 12:04:01 11.8 C 6.31 g/m*3 11.8 C 0 km/h
182 11-11-2008 12:16:02 12 C 6.07 g/m*3 12 C 0 km/h
183 11-11-2008 12:28:02 12.3 C 5.86 g/m*3 12.3 C 0 km/h
184 11-11-2008 12:40:01 12.7 C 6.01 g/m*3 12.7 C 0 km/h
185 11-11-2008 12:52:01 13.1 C 5.93 g/m*3 13.1 C 0 km/h
186 11-11-2008 13:04:01 13 C 5.56 g/m*3 13 C 0 km/h
187 11-11-2008 13:16:01 12.9 C 5.75 g/m*3 12.9 C 0 km/h
188 11-11-2008 13:28:01 13.4 C 5.23 g/m*3 13.4 C 0 km/h
189 11-11-2008 13:40:01 13.5 C 5.03 g/m*3 13.5 C 0 km/h
190 11-11-2008 13:52:01 14.1 C 4.73 g/m*3 14.1 C 0 km/h
191 11-11-2008 14:04:02 13.8 C 4.89 g/m*3 13.8 C 0 km/h
192 11-11-2008 14:16:01 14.1 C 4.85 g/m*3 14.1 C 0 km/h
193 11-11-2008 14:28:01 14 C 4.95 g/m*3 14 C 0 km/h
194 11-11-2008 14:40:02 13.5 C 4.68 g/m*3 13.5 C 0 km/h
195 11-11-2008 14:52:02 13.1 C 4.56 g/m*3 13.1 C 0 km/h
196 11-11-2008 15:04:02 13 C 4.54 g/m*3 13 C 0 km/h
197 11-11-2008 15:16:02 12.8 C 4.7 g/m*3 12.8 C 0 km/h
198 11-11-2008 15:28:02 12.5 C 4.73 g/m*3 12.5 C 0 km/h
199 11-11-2008 15:40:02 12.2 C 4.96 g/m*3 12.2 C 0 km/h
200 11-11-2008 15:52:02 12.1 C 4.93 g/m*3 12.1 C 0 km/h
Sensor: Nr:Datum:Temp:Abs-Feuchte:Windchill:Wind:
Aussen-T/F 201 11-11-2008 16:04:01 12.1 C 4.93 g/m*3 12.1 C 0 km/h
202 11-11-2008 16:16:02 12.1 C 4.93 g/m*3 12.1 C 0 km/h
203 11-11-2008 16:28:03 12.1 C 5.15 g/m*3 12.1 C 0 km/h
204 11-11-2008 16:40:01 12 C 5.12 g/m*3 12 C 0 km/h
205 11-11-2008 16:52:01 11.9 C 5.08 g/m*3 11.9 C 0 km/h
206 11-11-2008 17:04:02 11.9 C 4.98 g/m*3 11.9 C 0 km/h
207 11-11-2008 17:16:02 11.9 C 4.87 g/m*3 11.9 C 0 km/h
208 11-11-2008 17:28:03 11.9 C 4.87 g/m*3 11.9 C 0 km/h
209 11-11-2008 17:40:01 11.7 C 4.92 g/m*3 11.7 C 0 km/h
210 11-11-2008 17:52:02 11.3 C 4.79 g/m*3 11.3 C 0 km/h
211 11-11-2008 18:04:01 11.1 C 4.83 g/m*3 11.1 C 0 km/h
212 11-11-2008 18:16:02 11.3 C 4.79 g/m*3 11.3 C 0 km/h
213 11-11-2008 18:28:02 11.4 C 4.82 g/m*3 11.4 C 0 km/h
214 11-11-2008 18:40:01 11.1 C 4.83 g/m*3 11.1 C 0 km/h
215 11-11-2008 18:52:01 11.2 C 4.87 g/m*3 11.2 C 0 km/h
216 11-11-2008 19:04:02 11.1 C 4.94 g/m*3 11.1 C 0 km/h
217 11-11-2008 19:16:01 11.1 C 5.04 g/m*3 11.1 C 0 km/h
218 11-11-2008 19:28:01 11.1 C 5.14 g/m*3 11.1 C 0 km/h
219 11-11-2008 19:40:01 11.1 C 5.14 g/m*3 11.1 C 0 km/h
220 11-11-2008 19:52:01 11.1 C 5.24 g/m*3 11.1 C 0 km/h
221 11-11-2008 20:04:02 11.1 C 5.24 g/m*3 11.1 C 0 km/h
222 11-11-2008 20:16:01 11.1 C 5.24 g/m*3 11.1 C 0 km/h
223 11-11-2008 20:28:01 11 C 5.31 g/m*3 11 C 0 km/h
224 11-11-2008 20:40:02 11 C 5.41 g/m*3 11 C 0 km/h
225 11-11-2008 20:52:02 11 C 5.51 g/m*3 11 C 0 km/h
Sensor: Nr:Datum:Temp:Abs-Feuchte:Windchill:Wind:
Aussen-T/F 226 11-11-2008 21:04:02 10.9 C 5.67 g/m*3 10.9 C 0 km/h
227 11-11-2008 21:16:02 10.8 C 5.63 g/m*3 10.8 C 0 km/h
228 11-11-2008 21:28:02 10.8 C 5.73 g/m*3 10.8 C 0 km/h
229 11-11-2008 21:40:02 10.8 C 5.73 g/m*3 10.8 C 0 km/h
230 11-11-2008 21:52:02 10.8 C 5.73 g/m*3 10.8 C 0 km/h
231 11-11-2008 22:04:01 10.7 C 5.8 g/m*3 10.7 C 0 km/h
232 11-11-2008 22:16:02 10.7 C 5.89 g/m*3 10.7 C 0 km/h
233 11-11-2008 22:28:02 9.5 C 6.64 g/m*3 9.5 C 0 km/h
234 11-11-2008 22:40:02 8.9 C 7.1 g/m*3 8.9 C 0 km/h
235 11-11-2008 22:52:02 8.7 C 7.26 g/m*3 8.7 C 0 km/h
236 11-11-2008 23:04:01 8.5 C 7.26 g/m*3 8.5 C 0 km/h
237 11-11-2008 23:16:02 8.4 C 7.21 g/m*3 8.4 C 0 km/h
238 11-11-2008 23:28:02 8.3 C 7.25 g/m*3 8.3 C 0 km/h
239 11-11-2008 23:40:01 8.3 C 7.33 g/m*3 8.3 C 0 km/h
240 11-11-2008 23:52:02 8.3 C 7.33 g/m*3 8.3 C 0 km/h
241 12-11-2008 00:04:02 8.3 C 7.33 g/m*3 8.3 C 0 km/h
242 12-11-2008 00:16:03 8.2 C 7.37 g/m*3 8.2 C 0 km/h
243 12-11-2008 00:28:03 8.1 C 7.32 g/m*3 8.1 C 0 km/h
244 12-11-2008 00:40:02 8.2 C 7.45 g/m*3 8.2 C 0 km/h
245 12-11-2008 00:52:01 8.1 C 7.41 g/m*3 8.1 C 0 km/h
246 12-11-2008 01:04:02 8.3 C 7.5 g/m*3 8.3 C 0 km/h
247 12-11-2008 01:16:01 8.3 C 7.5 g/m*3 8.3 C 0 km/h
248 12-11-2008 01:28:01 8.4 C 7.55 g/m*3 8.4 C 0 km/h
249 12-11-2008 01:40:02 8.5 C 7.51 g/m*3 8.5 C 0 km/h
250 12-11-2008 01:52:02 8.5 C 7.51 g/m*3 8.5 C 0 km/h
Sensor: Nr:Datum:Temp:Abs-Feuchte:Windchill:Wind:
Aussen-T/F 251 12-11-2008 02:04:02 8.2 C 7.2 g/m*3 8.2 C 0 km/h
252 12-11-2008 02:16:02 8.1 C 7.16 g/m*3 8.1 C 0 km/h
253 12-11-2008 02:28:02 8.1 C 7.16 g/m*3 8.1 C 0 km/h
254 12-11-2008 02:40:02 8 C 7.03 g/m*3 8 C 0 km/h
255 12-11-2008 02:53:03 8.1 C 6.99 g/m*3 8.1 C 0 km/h
256 12-11-2008 03:05:04 8 C 6.94 g/m*3 8 C 0 km/h
257 12-11-2008 03:17:03 7.6 C 6.85 g/m*3 7.6 C 0 km/h
258 12-11-2008 03:29:03 7.5 C 6.88 g/m*3 7.5 C 0 km/h
259 12-11-2008 03:41:01 7.3 C 6.79 g/m*3 7.3 C 0 km/h
260 12-11-2008 03:53:01 7.1 C 6.79 g/m*3 7.1 C 0 km/h
261 12-11-2008 04:05:02 7.3 C 6.95 g/m*3 7.3 C 0 km/h
262 12-11-2008 04:17:02 7.4 C 7 g/m*3 7.4 C 0 km/h
263 12-11-2008 04:29:02 7.2 C 6.91 g/m*3 7.2 C 0 km/h
264 12-11-2008 04:41:02 7.5 C 7.04 g/m*3 7.5 C 0 km/h
265 12-11-2008 04:53:02 7.7 C 7.14 g/m*3 7.7 C 0 km/h
266 12-11-2008 05:05:02 7.9 C 7.15 g/m*3 7.9 C 0 km/h
267 12-11-2008 05:17:01 7.9 C 7.15 g/m*3 7.9 C 0 km/h
268 12-11-2008 05:29:01 7.8 C 7.1 g/m*3 7.8 C 0 km/h
269 12-11-2008 05:41:02 7.6 C 7.01 g/m*3 7.6 C 0 km/h
270 12-11-2008 05:53:02 7.4 C 6.92 g/m*3 7.4 C 0 km/h
271 12-11-2008 06:05:02 7.4 C 6.92 g/m*3 7.4 C 0 km/h
272 12-11-2008 06:17:02 7.5 C 6.96 g/m*3 7.5 C 0 km/h
273 12-11-2008 06:29:02 7.8 C 6.94 g/m*3 7.8 C 0 km/h
274 12-11-2008 06:41:02 8 C 6.7 g/m*3 8 C 0 km/h
275 12-11-2008 06:53:01 8 C 6.7 g/m*3 8 C 0 km/h
Sensor: Nr:Datum:Temp:Abs-Feuchte:Windchill:Wind:
Aussen-T/F 276 12-11-2008 07:05:02 7.8 C 6.69 g/m*3 7.8 C 0 km/h
277 12-11-2008 07:17:01 7.5 C 6.56 g/m*3 7.5 C 0 km/h
278 12-11-2008 07:29:01 7.4 C 6.44 g/m*3 7.4 C 0 km/h
279 12-11-2008 07:41:01 7.2 C 6.44 g/m*3 7.2 C 0 km/h
280 12-11-2008 07:53:02 7.6 C 6.69 g/m*3 7.6 C 0 km/h
281 12-11-2008 08:05:02 7.8 C 6.61 g/m*3 7.8 C 0 km/h
282 12-11-2008 08:17:02 7.9 C 6.49 g/m*3 7.9 C 0 km/h
283 12-11-2008 08:29:02 8 C 6.45 g/m*3 8 C 0 km/h
284 12-11-2008 08:41:02 8.1 C 6.41 g/m*3 8.1 C 0 km/h
285 12-11-2008 08:53:02 7.9 C 6.49 g/m*3 7.9 C 0 km/h
286 12-11-2008 09:05:02 7.8 C 6.45 g/m*3 7.8 C 0 km/h
287 12-11-2008 09:17:02 7.6 C 6.44 g/m*3 7.6 C 0 km/h
288 12-11-2008 09:29:02 7.7 C 6.57 g/m*3 7.7 C 0 km/h
289 12-11-2008 09:41:02 8.2 C 6.7 g/m*3 8.2 C 0 km/h
290 12-11-2008 09:53:02 8.2 C 6.53 g/m*3 8.2 C 0 km/h
291 12-11-2008 10:05:01 8.2 C 6.53 g/m*3 8.2 C 0 km/h
292 12-11-2008 10:17:02 8.9 C 6.57 g/m*3 8.9 C 0 km/h
293 12-11-2008 10:29:02 9.3 C 6.38 g/m*3 9.3 C 0 km/h
294 12-11-2008 10:41:01 9.4 C 6.15 g/m*3 9.4 C 0 km/h
295 12-11-2008 10:53:02 9.6 C 6.32 g/m*3 9.6 C 0 km/h
296 12-11-2008 11:05:01 9.8 C 6.31 g/m*3 9.8 C 0 km/h
297 12-11-2008 11:17:02 10.2 C 6.38 g/m*3 10.2 C 0 km/h
298 12-11-2008 11:29:02 10.7 C 6.48 g/m*3 10.7 C 0 km/h
299 12-11-2008 11:41:01 10.6 C 6.44 g/m*3 10.6 C 0 km/h
300 12-11-2008 11:53:01 9.9 C 6.63 g/m*3 9.9 C 0 km/h
Sensor: Nr:Datum:Temp:Abs-Feuchte:Windchill:Wind:
Aussen-T/F 301 12-11-2008 12:05:01 10.4 C 6.84 g/m*3 10.4 C 0 km/h
302 12-11-2008 12:17:02 10.5 C 6.89 g/m*3 10.5 C 0 km/h
303 12-11-2008 12:29:02 10.4 C 6.65 g/m*3 10.4 C 0 km/h
304 12-11-2008 12:41:01 10.9 C 6.76 g/m*3 10.9 C 0 km/h
305 12-11-2008 12:53:01 11.2 C 6.39 g/m*3 11.2 C 0 km/h
306 12-11-2008 13:05:01 11.8 C 6.31 g/m*3 11.8 C 0 km/h
307 12-11-2008 13:17:01 11.7 C 6.38 g/m*3 11.7 C 0 km/h
308 12-11-2008 13:29:01 11.1 C 6.04 g/m*3 11.1 C 0 km/h
309 12-11-2008 13:41:01 11.5 C 6.09 g/m*3 11.5 C 0 km/h
310 12-11-2008 13:53:01 11.5 C 5.89 g/m*3 11.5 C 0 km/h
311 12-11-2008 14:05:02 11.2 C 5.88 g/m*3 11.2 C 0 km/h
312 12-11-2008 14:17:01 11.9 C 5.93 g/m*3 11.9 C 0 km/h
313 12-11-2008 14:29:01 11.7 C 5.75 g/m*3 11.7 C 0 km/h
314 12-11-2008 14:41:02 11.2 C 5.78 g/m*3 11.2 C 0 km/h
315 12-11-2008 14:53:02 10.9 C 5.97 g/m*3 10.9 C 0 km/h
316 12-11-2008 15:05:02 12 C 5.97 g/m*3 12 C 0 km/h
317 12-11-2008 15:17:01 12.3 C 5.86 g/m*3 12.3 C 0 km/h
318 12-11-2008 15:29:01 11.8 C 5.79 g/m*3 11.8 C 0 km/h
319 12-11-2008 15:41:02 11.1 C 5.84 g/m*3 11.1 C 0 km/h
320 12-11-2008 15:53:02 10.7 C 5.89 g/m*3 10.7 C 0 km/h
321 12-11-2008 16:05:02 10.8 C 5.93 g/m*3 10.8 C 0 km/h
322 12-11-2008 16:17:02 10.8 C 5.93 g/m*3 10.8 C 0 km/h
323 12-11-2008 16:29:02 10.4 C 5.88 g/m*3 10.4 C 0 km/h
324 12-11-2008 16:41:02 9.9 C 5.98 g/m*3 9.9 C 0 km/h
325 12-11-2008 16:53:02 9.6 C 5.95 g/m*3 9.6 C 0 km/h
Sensor: Nr:Datum:Temp:Abs-Feuchte:Windchill:Wind:
Aussen-T/F 326 12-11-2008 17:05:01 9.5 C 6.01 g/m*3 9.5 C 0 km/h
327 12-11-2008 17:17:02 9.2 C 6.07 g/m*3 9.2 C 0 km/h
328 12-11-2008 17:29:02 8.7 C 6.05 g/m*3 8.7 C 0 km/h
329 12-11-2008 17:41:01 8.3 C 5.98 g/m*3 8.3 C 0 km/h
330 12-11-2008 17:53:03 8.1 C 6.07 g/m*3 8.1 C 0 km/h
331 12-11-2008 18:05:02 7.8 C 6.04 g/m*3 7.8 C 0 km/h
332 12-11-2008 18:17:02 7.8 C 6.2 g/m*3 7.8 C 0 km/h
333 12-11-2008 18:29:02 7.6 C 6.2 g/m*3 7.6 C 0 km/h
334 12-11-2008 18:41:02 7.6 C 6.2 g/m*3 7.6 C 0 km/h
335 12-11-2008 18:53:03 7.8 C 6.28 g/m*3 7.8 C 0 km/h
336 12-11-2008 19:05:02 7.7 C 6.24 g/m*3 7.7 C 0 km/h
337 12-11-2008 19:17:02 7.6 C 6.2 g/m*3 7.6 C 0 km/h
338 12-11-2008 19:29:02 7.8 C 6.37 g/m*3 7.8 C 0 km/h
339 12-11-2008 19:41:02 7.7 C 6.32 g/m*3 7.7 C 0 km/h
340 12-11-2008 19:53:02 7.8 C 6.45 g/m*3 7.8 C 0 km/h
341 12-11-2008 20:05:01 7.9 C 6.41 g/m*3 7.9 C 0 km/h
342 12-11-2008 20:17:02 7.9 C 6.41 g/m*3 7.9 C 0 km/h
343 12-11-2008 20:29:02 7.8 C 6.45 g/m*3 7.8 C 0 km/h
344 12-11-2008 20:41:01 7.7 C 6.41 g/m*3 7.7 C 0 km/h
345 12-11-2008 20:53:02 7.4 C 6.28 g/m*3 7.4 C 0 km/h
346 12-11-2008 21:05:01 7.1 C 6.24 g/m*3 7.1 C 0 km/h
347 12-11-2008 21:17:02 7.1 C 6.32 g/m*3 7.1 C 0 km/h
348 12-11-2008 21:29:02 7.1 C 6.32 g/m*3 7.1 C 0 km/h
349 12-11-2008 21:41:01 7.1 C 6.32 g/m*3 7.1 C 0 km/h
350 12-11-2008 21:53:01 7.1 C 6.4 g/m*3 7.1 C 0 km/h
Sensor: Nr:Datum:Temp:Abs-Feuchte:Windchill:Wind:
Aussen-T/F 351 12-11-2008 22:05:02 7.2 C 6.44 g/m*3 7.2 C 0 km/h
352 12-11-2008 22:17:02 7.1 C 6.32 g/m*3 7.1 C 0 km/h
353 12-11-2008 22:29:02 6.8 C 6.27 g/m*3 6.8 C 0 km/h
354 12-11-2008 22:41:01 6.3 C 6.14 g/m*3 6.3 C 0 km/h
355 12-11-2008 22:53:01 6.2 C 6.18 g/m*3 6.2 C 0 km/h
356 12-11-2008 23:05:02 6 C 6.1 g/m*3 6 C 0 km/h
357 12-11-2008 23:17:01 5.7 C 6.05 g/m*3 5.7 C 0 km/h
358 12-11-2008 23:29:01 5.5 C 6.04 g/m*3 5.5 C 0 km/h
359 12-11-2008 23:41:02 5.2 C 5.92 g/m*3 5.2 C 0 km/h
360 12-11-2008 23:53:02 5 C 5.84 g/m*3 5 C 0 km/h
361 13-11-2008 00:05:02 5 C 5.91 g/m*3 5 C 0 km/h
362 13-11-2008 00:17:02 4.8 C 5.9 g/m*3 4.8 C 0 km/h
363 13-11-2008 00:29:02 4.7 C 5.93 g/m*3 4.7 C 0 km/h
364 13-11-2008 00:41:02 4.8 C 6.04 g/m*3 4.8 C 0 km/h
365 13-11-2008 00:53:02 4.8 C 6.04 g/m*3 4.8 C 0 km/h
366 13-11-2008 01:05:02 4.7 C 6.06 g/m*3 4.7 C 0 km/h
367 13-11-2008 01:17:02 4.9 C 6.21 g/m*3 4.9 C 0 km/h
368 13-11-2008 01:29:02 4.8 C 6.17 g/m*3 4.8 C 0 km/h
369 13-11-2008 01:41:02 4.7 C 6.06 g/m*3 4.7 C 0 km/h
370 13-11-2008 01:53:02 4.5 C 5.98 g/m*3 4.5 C 0 km/h
371 13-11-2008 02:05:03 4.2 C 5.86 g/m*3 4.2 C 0 km/h
372 13-11-2008 02:17:02 4 C 5.79 g/m*3 4 C 0 km/h
373 13-11-2008 02:29:02 3.7 C 5.8 g/m*3 3.7 C 0 km/h
374 13-11-2008 02:41:03 3.7 C 5.8 g/m*3 3.7 C 0 km/h
375 13-11-2008 02:53:01 3.6 C 5.82 g/m*3 3.6 C 0 km/h
Sensor: Nr:Datum:Temp:Abs-Feuchte:Windchill:Wind:
Aussen-T/F 376 13-11-2008 03:05:01 3.6 C 5.82 g/m*3 3.6 C 0 km/h
377 13-11-2008 03:17:02 3.6 C 5.88 g/m*3 3.6 C 0 km/h
378 13-11-2008 03:29:02 3.7 C 5.92 g/m*3 3.7 C 0 km/h
379 13-11-2008 03:41:02 3.6 C 5.88 g/m*3 3.6 C 0 km/h
380 13-11-2008 03:53:02 3.5 C 5.84 g/m*3 3.5 C 0 km/h
381 13-11-2008 04:05:01 3.8 C 5.96 g/m*3 3.8 C 0 km/h
382 13-11-2008 04:17:02 3.9 C 6 g/m*3 3.9 C 0 km/h
383 13-11-2008 04:29:02 3.8 C 5.96 g/m*3 3.8 C 0 km/h
384 13-11-2008 04:41:01 4 C 6.04 g/m*3 4 C 0 km/h
385 13-11-2008 04:53:02 4.2 C 6.06 g/m*3 4.2 C 0 km/h
386 13-11-2008 05:05:01 4.3 C 6.1 g/m*3 4.3 C 0 km/h
387 13-11-2008 05:17:02 4.5 C 6.18 g/m*3 4.5 C 0 km/h
388 13-11-2008 05:29:02 4.5 C 6.11 g/m*3 4.5 C 0 km/h
389 13-11-2008 05:41:01 4.6 C 6.15 g/m*3 4.6 C 0 km/h
390 13-11-2008 05:53:02 4.8 C 6.17 g/m*3 4.8 C 0 km/h
391 13-11-2008 06:05:01 4.7 C 6.13 g/m*3 4.7 C 0 km/h
392 13-11-2008 06:17:02 4.7 C 6.13 g/m*3 4.7 C 0 km/h
393 13-11-2008 06:29:02 4.8 C 6.17 g/m*3 4.8 C 0 km/h
394 13-11-2008 06:41:01 4.8 C 6.17 g/m*3 4.8 C 0 km/h
395 13-11-2008 06:53:01 4.8 C 6.17 g/m*3 4.8 C 0 km/h
396 13-11-2008 07:05:01 4.8 C 6.1 g/m*3 4.8 C 0 km/h
397 13-11-2008 07:17:02 4.8 C 6.1 g/m*3 4.8 C 0 km/h
398 13-11-2008 07:29:02 5 C 6.18 g/m*3 5 C 0 km/h
399 13-11-2008 07:41:01 5.1 C 6.22 g/m*3 5.1 C 0 km/h
400 13-11-2008 07:53:01 5.1 C 6.16 g/m*3 5.1 C 0 km/h
Sensor: Nr:Datum:Temp:Abs-Feuchte:Windchill:Wind:
Aussen-T/F 401 13-11-2008 08:05:05 5 C 6.12 g/m*3 5 C 0 km/h
402 13-11-2008 08:17:02 5.1 C 6.16 g/m*3 5.1 C 0 km/h
403 13-11-2008 08:29:02 5.3 C 6.24 g/m*3 5.3 C 0 km/h
404 13-11-2008 08:41:01 5.4 C 6.28 g/m*3 5.4 C 0 km/h
405 13-11-2008 08:53:01 5.6 C 6.36 g/m*3 5.6 C 0 km/h
406 13-11-2008 09:05:01 5.7 C 6.33 g/m*3 5.7 C 0 km/h
407 13-11-2008 09:17:02 5.8 C 6.3 g/m*3 5.8 C 0 km/h
408 13-11-2008 09:29:02 6 C 6.31 g/m*3 6 C 0 km/h
409 13-11-2008 09:41:01 6.3 C 6.37 g/m*3 6.3 C 0 km/h
410 13-11-2008 09:53:01 6.6 C 6.49 g/m*3 6.6 C 0 km/h
411 13-11-2008 10:05:02 6.9 C 6.54 g/m*3 6.9 C 0 km/h
412 13-11-2008 10:17:01 7 C 6.35 g/m*3 7 C 0 km/h
413 13-11-2008 10:29:01 7.2 C 6.2 g/m*3 7.2 C 0 km/h
414 13-11-2008 10:41:02 7.3 C 6.24 g/m*3 7.3 C 0 km/h
415 13-11-2008 10:53:01 7.1 C 6.16 g/m*3 7.1 C 0 km/h
416 13-11-2008 11:05:02 7 C 6.12 g/m*3 7 C 0 km/h
417 13-11-2008 11:17:01 7.5 C 6.32 g/m*3 7.5 C 0 km/h
418 13-11-2008 11:29:01 8.1 C 6.24 g/m*3 8.1 C 0 km/h
419 13-11-2008 11:41:02 8.3 C 6.15 g/m*3 8.3 C 0 km/h
420 13-11-2008 11:53:01 8.7 C 6.23 g/m*3 8.7 C 0 km/h
421 13-11-2008 12:05:02 8.6 C 6.1 g/m*3 8.6 C 0 km/h
422 13-11-2008 12:17:02 8.8 C 6.18 g/m*3 8.8 C 0 km/h
423 13-11-2008 12:29:02 9 C 6.08 g/m*3 9 C 0 km/h
424 13-11-2008 12:41:02 9.2 C 6.07 g/m*3 9.2 C 0 km/h
425 13-11-2008 12:53:01 9.3 C 6.02 g/m*3 9.3 C 0 km/h
Sensor: Nr:Datum:Temp:Abs-Feuchte:Windchill:Wind:
Aussen-T/F 426 13-11-2008 13:05:02 9.4 C 5.97 g/m*3 9.4 C 0 km/h
427 13-11-2008 13:17:01 9.5 C 5.92 g/m*3 9.5 C 0 km/h
428 13-11-2008 13:29:01 9.6 C 5.95 g/m*3 9.6 C 0 km/h
429 13-11-2008 13:41:02 9.6 C 5.86 g/m*3 9.6 C 0 km/h
430 13-11-2008 13:53:01 9.8 C 5.85 g/m*3 9.8 C 0 km/h
431 13-11-2008 14:05:02 9.9 C 5.79 g/m*3 9.9 C 0 km/h
432 13-11-2008 14:17:01 9.9 C 5.79 g/m*3 9.9 C 0 km/h
433 13-11-2008 14:29:01 10 C 5.83 g/m*3 10 C 0 km/h
434 13-11-2008 14:41:02 10 C 5.83 g/m*3 10 C 0 km/h
435 13-11-2008 14:53:01 10 C 5.83 g/m*3 10 C 0 km/h
436 13-11-2008 15:05:01 9.8 C 5.85 g/m*3 9.8 C 0 km/h
437 13-11-2008 15:17:01 9.8 C 5.94 g/m*3 9.8 C 0 km/h
438 13-11-2008 15:29:01 9.8 C 5.94 g/m*3 9.8 C 0 km/h
439 13-11-2008 15:41:02 9.7 C 5.9 g/m*3 9.7 C 0 km/h
440 13-11-2008 15:53:02 9.6 C 5.95 g/m*3 9.6 C 0 km/h
441 13-11-2008 16:05:01 9.5 C 5.92 g/m*3 9.5 C 0 km/h
442 13-11-2008 16:17:02 9.4 C 6.06 g/m*3 9.4 C 0 km/h
443 13-11-2008 16:29:02 9.2 C 6.16 g/m*3 9.2 C 0 km/h
444 13-11-2008 16:41:01 8.9 C 6.22 g/m*3 8.9 C 0 km/h
445 13-11-2008 16:53:01 8.7 C 6.23 g/m*3 8.7 C 0 km/h
446 13-11-2008 17:05:01 8.5 C 6.23 g/m*3 8.5 C 0 km/h
447 13-11-2008 17:17:01 8.4 C 6.28 g/m*3 8.4 C 0 km/h
448 13-11-2008 17:29:01 8.2 C 6.28 g/m*3 8.2 C 0 km/h
449 13-11-2008 17:41:01 8.2 C 6.2 g/m*3 8.2 C 0 km/h
450 13-11-2008 17:53:01 8.1 C 6.16 g/m*3 8.1 C 0 km/h
Sensor: Nr:Datum:Temp:Abs-Feuchte:Windchill:Wind:
Aussen-T/F 451 13-11-2008 18:05:02 8.1 C 6.16 g/m*3 8.1 C 0 km/h
452 13-11-2008 18:17:01 7.9 C 6.08 g/m*3 7.9 C 0 km/h
453 13-11-2008 18:29:01 7.7 C 6 g/m*3 7.7 C 0 km/h
454 13-11-2008 18:41:02 7.7 C 6 g/m*3 7.7 C 0 km/h
455 13-11-2008 18:53:01 7.6 C 6.04 g/m*3 7.6 C 0 km/h
456 13-11-2008 19:05:02 7.7 C 6.08 g/m*3 7.7 C 0 km/h
457 13-11-2008 19:17:01 7.6 C 6.04 g/m*3 7.6 C 0 km/h
458 13-11-2008 19:29:01 7.5 C 6 g/m*3 7.5 C 0 km/h
459 13-11-2008 19:41:02 7.3 C 5.93 g/m*3 7.3 C 0 km/h
460 13-11-2008 19:53:02 7.3 C 6 g/m*3 7.3 C 0 km/h
461 13-11-2008 20:05:01 7.1 C 5.93 g/m*3 7.1 C 0 km/h
462 13-11-2008 20:17:01 7.1 C 6.01 g/m*3 7.1 C 0 km/h
463 13-11-2008 20:29:01 7 C 5.97 g/m*3 7 C 0 km/h
464 13-11-2008 20:41:01 6.9 C 6 g/m*3 6.9 C 0 km/h
465 13-11-2008 20:53:02 6.5 C 5.85 g/m*3 6.5 C 0 km/h
466 13-11-2008 21:05:01 6.1 C 5.7 g/m*3 6.1 C 0 km/h
467 13-11-2008 21:17:02 5.9 C 5.77 g/m*3 5.9 C 0 km/h
468 13-11-2008 21:29:02 5.8 C 5.73 g/m*3 5.8 C 0 km/h
469 13-11-2008 21:41:01 5.6 C 5.73 g/m*3 5.6 C 0 km/h
470 13-11-2008 21:53:01 5.4 C 5.65 g/m*3 5.4 C 0 km/h
471 13-11-2008 22:05:02 5.1 C 5.61 g/m*3 5.1 C 0 km/h
472 13-11-2008 22:17:01 4.8 C 5.63 g/m*3 4.8 C 0 km/h
473 13-11-2008 22:29:01 4.6 C 5.56 g/m*3 4.6 C 0 km/h
474 13-11-2008 22:41:02 4.4 C 5.55 g/m*3 4.4 C 0 km/h
475 13-11-2008 22:53:01 4.3 C 5.51 g/m*3 4.3 C 0 km/h
Sensor: Nr:Datum:Temp:Abs-Feuchte:Windchill:Wind:
Aussen-T/F 476 13-11-2008 23:05:01 4.4 C 5.62 g/m*3 4.4 C 0 km/h
477 13-11-2008 23:17:02 4.2 C 5.61 g/m*3 4.2 C 0 km/h
478 13-11-2008 23:29:02 3.8 C 5.46 g/m*3 3.8 C 0 km/h
479 13-11-2008 23:41:02 3.7 C 5.48 g/m*3 3.7 C 0 km/h
480 13-11-2008 23:53:01 3.5 C 5.41 g/m*3 3.5 C 0 km/h
481 14-11-2008 00:05:02 3.5 C 5.47 g/m*3 3.5 C 0 km/h
482 14-11-2008 00:17:02 3.5 C 5.47 g/m*3 3.5 C 0 km/h
483 14-11-2008 00:29:02 3.6 C 5.57 g/m*3 3.6 C 0 km/h
484 14-11-2008 00:41:02 3.6 C 5.57 g/m*3 3.6 C 0 km/h
485 14-11-2008 00:53:02 3.4 C 5.5 g/m*3 3.4 C 0 km/h
486 14-11-2008 01:05:02 3.1 C 5.39 g/m*3 3.1 C 0 km/h
487 14-11-2008 01:17:02 2.7 C 5.24 g/m*3 2.7 C 0 km/h
488 14-11-2008 01:29:02 2.6 C 5.27 g/m*3 2.6 C 0 km/h
489 14-11-2008 01:41:01 2.6 C 5.27 g/m*3 2.6 C 0 km/h
490 14-11-2008 01:53:01 2.5 C 5.23 g/m*3 2.5 C 0 km/h
491 14-11-2008 02:05:01 2.2 C 5.13 g/m*3 2.2 C 0 km/h
492 14-11-2008 02:17:01 2.2 C 5.13 g/m*3 2.2 C 0 km/h
493 14-11-2008 02:29:01 2.1 C 5.09 g/m*3 2.1 C 0 km/h
494 14-11-2008 02:41:01 2.5 C 5.29 g/m*3 2.5 C 0 km/h
495 14-11-2008 02:54:06 2.3 C 5.22 g/m*3 2.3 C 0 km/h
496 14-11-2008 03:06:06 2.5 C 5.29 g/m*3 2.5 C 0 km/h
497 14-11-2008 03:18:07 2.3 C 5.22 g/m*3 2.3 C 0 km/h
498 14-11-2008 03:30:07 2 C 5.11 g/m*3 2 C 0 km/h
499 14-11-2008 03:42:02 1.9 C 5.13 g/m*3 1.9 C 0 km/h
500 14-11-2008 03:54:02 1.7 C 5.06 g/m*3 1.7 C 0 km/h
Sensor: Nr:Datum:Temp:Abs-Feuchte:Windchill:Wind:
Aussen-T/F 501 14-11-2008 04:06:02 1.9 C 5.19 g/m*3 1.9 C 0 km/h
502 14-11-2008 04:18:02 1.8 C 5.15 g/m*3 1.8 C 0 km/h
503 14-11-2008 04:30:02 1.9 C 5.19 g/m*3 1.9 C 0 km/h
504 14-11-2008 04:42:02 2 C 5.22 g/m*3 2 C 0 km/h
505 14-11-2008 04:54:02 2 C 5.22 g/m*3 2 C 0 km/h
506 14-11-2008 05:06:02 2 C 5.28 g/m*3 2 C 0 km/h
507 14-11-2008 05:18:02 2.1 C 5.31 g/m*3 2.1 C 0 km/h
508 14-11-2008 05:30:02 2.2 C 5.35 g/m*3 2.2 C 0 km/h
509 14-11-2008 05:42:02 2.2 C 5.35 g/m*3 2.2 C 0 km/h
510 14-11-2008 05:54:01 2.2 C 5.35 g/m*3 2.2 C 0 km/h
511 14-11-2008 06:06:02 2.3 C 5.39 g/m*3 2.3 C 0 km/h
512 14-11-2008 06:18:02 2.2 C 5.29 g/m*3 2.2 C 0 km/h
513 14-11-2008 06:30:02 2.1 C 5.26 g/m*3 2.1 C 0 km/h
514 14-11-2008 06:42:01 2 C 5.22 g/m*3 2 C 0 km/h
515 14-11-2008 06:54:01 1.8 C 5.15 g/m*3 1.8 C 0 km/h
516 14-11-2008 07:06:02 1.7 C 5.06 g/m*3 1.7 C 0 km/h
517 14-11-2008 07:18:02 1.5 C 4.99 g/m*3 1.5 C 0 km/h
518 14-11-2008 07:30:02 1.4 C 4.91 g/m*3 1.4 C 0 km/h
519 14-11-2008 07:42:02 1.6 C 5.03 g/m*3 1.6 C 0 km/h
520 14-11-2008 07:54:02 1.9 C 5.13 g/m*3 1.9 C 0 km/h
521 14-11-2008 08:06:02 2 C 5.11 g/m*3 2 C 0 km/h
522 14-11-2008 08:18:01 2.2 C 5.18 g/m*3 2.2 C 0 km/h
523 14-11-2008 08:30:01 2.1 C 5.09 g/m*3 2.1 C 0 km/h
524 14-11-2008 08:42:02 2.2 C 5.13 g/m*3 2.2 C 0 km/h
525 14-11-2008 08:54:02 2.5 C 5.17 g/m*3 2.5 C 0 km/h
Sensor: Nr:Datum:Temp:Abs-Feuchte:Windchill:Wind:
Aussen-T/F 526 14-11-2008 09:06:02 2.9 C 5.26 g/m*3 2.9 C 0 km/h
527 14-11-2008 09:18:02 3.3 C 5.34 g/m*3 3.3 C 0 km/h
528 14-11-2008 09:30:02 3.6 C 5.45 g/m*3 3.6 C 0 km/h
529 14-11-2008 09:42:02 3.9 C 5.49 g/m*3 3.9 C 0 km/h
530 14-11-2008 09:54:02 4.2 C 5.48 g/m*3 4.2 C 0 km/h
531 14-11-2008 10:06:01 4.5 C 5.52 g/m*3 4.5 C 0 km/h
532 14-11-2008 10:18:02 4.7 C 5.53 g/m*3 4.7 C 0 km/h
533 14-11-2008 10:30:02 4.6 C 5.29 g/m*3 4.6 C 0 km/h
534 14-11-2008 10:42:01 5.1 C 5.27 g/m*3 5.1 C 0 km/h
535 14-11-2008 10:54:03 5.6 C 5.16 g/m*3 5.6 C 0 km/h
536 14-11-2008 11:06:02 5.7 C 5.12 g/m*3 5.7 C 0 km/h
537 14-11-2008 11:18:02 6 C 5.23 g/m*3 6 C 0 km/h
538 14-11-2008 11:30:02 6.8 C 4.97 g/m*3 6.8 C 0 km/h
539 14-11-2008 11:42:02 7.5 C 4.72 g/m*3 7.5 C 0 km/h
540 14-11-2008 11:54:02 8.2 C 4.61 g/m*3 8.2 C 0 km/h
541 14-11-2008 12:06:02 8.8 C 4.44 g/m*3 8.8 C 0 km/h
542 14-11-2008 12:18:02 9 C 4.32 g/m*3 9 C 0 km/h
543 14-11-2008 12:30:02 9 C 4.32 g/m*3 9 C 0 km/h
544 14-11-2008 12:42:02 8.9 C 4.38 g/m*3 8.9 C 0 km/h
545 14-11-2008 12:54:02 9 C 4.41 g/m*3 9 C 0 km/h
546 14-11-2008 13:06:02 8.9 C 4.38 g/m*3 8.9 C 0 km/h
547 14-11-2008 13:18:02 9.1 C 4.35 g/m*3 9.1 C 0 km/h
548 14-11-2008 13:30:02 9.1 C 4.35 g/m*3 9.1 C 0 km/h
549 14-11-2008 13:42:02 8.9 C 4.38 g/m*3 8.9 C 0 km/h
550 14-11-2008 13:54:01 8.8 C 4.44 g/m*3 8.8 C 0 km/h
Sensor: Nr:Datum:Temp:Abs-Feuchte:Windchill:Wind:
Aussen-T/F 551 14-11-2008 14:06:02 8.8 C 4.61 g/m*3 8.8 C 0 km/h
552 14-11-2008 14:18:02 8.7 C 4.84 g/m*3 8.7 C 0 km/h
553 14-11-2008 14:30:02 8.6 C 4.81 g/m*3 8.6 C 0 km/h
554 14-11-2008 14:42:02 8.5 C 4.87 g/m*3 8.5 C 0 km/h
555 14-11-2008 14:54:02 8.5 C 4.95 g/m*3 8.5 C 0 km/h
556 14-11-2008 15:06:02 8.2 C 5.19 g/m*3 8.2 C 0 km/h
557 14-11-2008 15:18:01 7.9 C 5.5 g/m*3 7.9 C 0 km/h
558 14-11-2008 15:30:01 7.8 C 5.63 g/m*3 7.8 C 0 km/h
559 14-11-2008 15:42:02 7.6 C 5.64 g/m*3 7.6 C 0 km/h
560 14-11-2008 15:54:02 7.5 C 5.76 g/m*3 7.5 C 0 km/h
561 14-11-2008 16:06:02 7.8 C 5.79 g/m*3 7.8 C 0 km/h
562 14-11-2008 16:18:02 7.9 C 5.83 g/m*3 7.9 C 0 km/h
563 14-11-2008 16:30:02 8 C 5.87 g/m*3 8 C 0 km/h
564 14-11-2008 16:42:02 8.1 C 5.82 g/m*3 8.1 C 0 km/h
565 14-11-2008 16:54:02 8.1 C 5.74 g/m*3 8.1 C 0 km/h
566 14-11-2008 17:06:02 8.1 C 5.82 g/m*3 8.1 C 0 km/h
567 14-11-2008 17:18:01 8.1 C 5.82 g/m*3 8.1 C 0 km/h
568 14-11-2008 17:30:01 8.1 C 5.82 g/m*3 8.1 C 0 km/h
569 14-11-2008 17:42:02 8.1 C 5.74 g/m*3 8.1 C 0 km/h
570 14-11-2008 17:54:02 8.1 C 5.82 g/m*3 8.1 C 0 km/h
571 14-11-2008 18:06:02 8.1 C 5.82 g/m*3 8.1 C 0 km/h
572 14-11-2008 18:18:02 8.1 C 5.74 g/m*3 8.1 C 0 km/h
573 14-11-2008 18:30:02 8.1 C 5.74 g/m*3 8.1 C 0 km/h
574 14-11-2008 18:42:02 8.1 C 5.74 g/m*3 8.1 C 0 km/h
575 14-11-2008 18:54:02 8.1 C 5.74 g/m*3 8.1 C 0 km/h
Sensor: Nr:Datum:Temp:Abs-Feuchte:Windchill:Wind:
Aussen-T/F 576 14-11-2008 19:06:02 8.2 C 5.86 g/m*3 8.2 C 0 km/h
577 14-11-2008 19:18:02 8.1 C 5.74 g/m*3 8.1 C 0 km/h
578 14-11-2008 19:30:03 8.1 C 5.82 g/m*3 8.1 C 0 km/h
579 14-11-2008 19:42:02 8.1 C 5.82 g/m*3 8.1 C 0 km/h
580 14-11-2008 19:54:01 8.1 C 5.82 g/m*3 8.1 C 0 km/h
581 14-11-2008 20:06:02 8.1 C 5.82 g/m*3 8.1 C 0 km/h
582 14-11-2008 20:18:01 8.1 C 5.91 g/m*3 8.1 C 0 km/h
583 14-11-2008 20:30:01 8 C 5.95 g/m*3 8 C 0 km/h
584 14-11-2008 20:42:02 8 C 5.95 g/m*3 8 C 0 km/h
585 14-11-2008 20:54:02 8 C 5.95 g/m*3 8 C 0 km/h
586 14-11-2008 21:06:02 8 C 5.95 g/m*3 8 C 0 km/h
587 14-11-2008 21:18:02 8 C 5.95 g/m*3 8 C 0 km/h
588 14-11-2008 21:30:02 8 C 5.95 g/m*3 8 C 0 km/h
589 14-11-2008 21:42:02 7.9 C 6 g/m*3 7.9 C 0 km/h
590 14-11-2008 21:54:02 7.9 C 6 g/m*3 7.9 C 0 km/h
591 14-11-2008 22:06:01 8 C 5.95 g/m*3 8 C 0 km/h
592 14-11-2008 22:18:02 8 C 5.95 g/m*3 8 C 0 km/h
593 14-11-2008 22:30:02 8 C 5.95 g/m*3 8 C 0 km/h
594 14-11-2008 22:43:01 8 C 6.04 g/m*3 8 C 0 km/h
595 14-11-2008 22:55:01 8 C 6.12 g/m*3 8 C 0 km/h
596 14-11-2008 23:07:01 8.1 C 6.16 g/m*3 8.1 C 0 km/h
597 14-11-2008 23:19:01 8.2 C 6.28 g/m*3 8.2 C 0 km/h
598 14-11-2008 23:31:01 8.2 C 6.28 g/m*3 8.2 C 0 km/h
599 14-11-2008 23:43:01 8.1 C 6.24 g/m*3 8.1 C 0 km/h
600 14-11-2008 23:55:01 8.1 C 6.32 g/m*3 8.1 C 0 km/h
Sensor: Nr:Datum:Temp:Abs-Feuchte:Windchill:Wind:
Aussen-T/F 601 15-11-2008 00:07:01 8.1 C 6.32 g/m*3 8.1 C 0 km/h
602 15-11-2008 00:19:01 8.1 C 6.32 g/m*3 8.1 C 0 km/h
603 15-11-2008 00:31:01 8.1 C 6.41 g/m*3 8.1 C 0 km/h
604 15-11-2008 00:43:02 8.1 C 6.41 g/m*3 8.1 C 0 km/h
605 15-11-2008 00:55:02 8.1 C 6.49 g/m*3 8.1 C 0 km/h
606 15-11-2008 01:07:02 8.1 C 6.49 g/m*3 8.1 C 0 km/h
607 15-11-2008 01:19:02 8 C 6.45 g/m*3 8 C 0 km/h
608 15-11-2008 01:31:02 8 C 6.53 g/m*3 8 C 0 km/h
609 15-11-2008 01:43:02 8.1 C 6.57 g/m*3 8.1 C 0 km/h
610 15-11-2008 01:55:02 8.1 C 6.57 g/m*3 8.1 C 0 km/h
611 15-11-2008 02:07:02 8.2 C 6.62 g/m*3 8.2 C 0 km/h
612 15-11-2008 02:19:02 8.2 C 6.62 g/m*3 8.2 C 0 km/h
613 15-11-2008 02:31:02 8.2 C 6.62 g/m*3 8.2 C 0 km/h
614 15-11-2008 02:43:02 8.2 C 6.62 g/m*3 8.2 C 0 km/h
615 15-11-2008 02:55:02 8.2 C 6.62 g/m*3 8.2 C 0 km/h
616 15-11-2008 03:07:02 8.2 C 6.62 g/m*3 8.2 C 0 km/h
617 15-11-2008 03:19:02 8.2 C 6.62 g/m*3 8.2 C 0 km/h
618 15-11-2008 03:31:02 8.2 C 6.62 g/m*3 8.2 C 0 km/h
619 15-11-2008 03:43:02 8.2 C 6.7 g/m*3 8.2 C 0 km/h
620 15-11-2008 03:55:02 8.2 C 6.7 g/m*3 8.2 C 0 km/h
621 15-11-2008 04:07:02 8.2 C 6.7 g/m*3 8.2 C 0 km/h
622 15-11-2008 04:19:02 8.2 C 6.7 g/m*3 8.2 C 0 km/h
623 15-11-2008 04:31:03 8.3 C 6.83 g/m*3 8.3 C 0 km/h
624 15-11-2008 04:43:03 8.4 C 6.87 g/m*3 8.4 C 0 km/h
625 15-11-2008 04:55:03 8.5 C 6.92 g/m*3 8.5 C 0 km/h
Sensor: Nr:Datum:Temp:Abs-Feuchte:Windchill:Wind:
Aussen-T/F 626 15-11-2008 05:07:03 8.5 C 6.92 g/m*3 8.5 C 0 km/h
627 15-11-2008 05:19:03 8.6 C 6.96 g/m*3 8.6 C 0 km/h
628 15-11-2008 05:31:03 8.7 C 7.01 g/m*3 8.7 C 0 km/h
629 15-11-2008 05:43:03 8.8 C 6.96 g/m*3 8.8 C 0 km/h
630 15-11-2008 05:55:03 8.8 C 6.96 g/m*3 8.8 C 0 km/h
631 15-11-2008 06:07:03 8.8 C 6.96 g/m*3 8.8 C 0 km/h
632 15-11-2008 06:19:03 8.8 C 6.96 g/m*3 8.8 C 0 km/h
633 15-11-2008 06:31:03 8.8 C 6.96 g/m*3 8.8 C 0 km/h
634 15-11-2008 06:43:03 8.9 C 7.01 g/m*3 8.9 C 0 km/h
635 15-11-2008 06:55:03 8.9 C 7.01 g/m*3 8.9 C 0 km/h
636 15-11-2008 07:07:03 9 C 6.96 g/m*3 9 C 0 km/h
637 15-11-2008 07:19:03 9 C 6.96 g/m*3 9 C 0 km/h
638 15-11-2008 07:31:03 9 C 6.96 g/m*3 9 C 0 km/h
639 15-11-2008 07:43:03 9 C 7.05 g/m*3 9 C 0 km/h
640 15-11-2008 07:55:03 9.4 C 7.15 g/m*3 9.4 C 0 km/h
641 15-11-2008 08:07:03 9.1 C 7.01 g/m*3 9.1 C 0 km/h
642 15-11-2008 08:19:01 9.3 C 7.1 g/m*3 9.3 C 0 km/h
643 15-11-2008 08:31:01 9.3 C 7.1 g/m*3 9.3 C 0 km/h
644 15-11-2008 08:43:01 9.3 C 7.01 g/m*3 9.3 C 0 km/h
645 15-11-2008 08:55:02 9.3 C 7.01 g/m*3 9.3 C 0 km/h
646 15-11-2008 09:07:02 9.4 C 7.05 g/m*3 9.4 C 0 km/h
647 15-11-2008 09:19:03 9.5 C 7.1 g/m*3 9.5 C 0 km/h
648 15-11-2008 09:31:02 9.5 C 7.01 g/m*3 9.5 C 0 km/h
649 15-11-2008 09:43:02 9.6 C 7.05 g/m*3 9.6 C 0 km/h
650 15-11-2008 09:55:02 9.6 C 7.05 g/m*3 9.6 C 0 km/h
Sensor: Nr:Datum:Temp:Abs-Feuchte:Windchill:Wind:
Aussen-T/F 651 15-11-2008 10:07:02 9.6 C 7.05 g/m*3 9.6 C 0 km/h
652 15-11-2008 10:19:02 9.7 C 7.01 g/m*3 9.7 C 0 km/h
653 15-11-2008 10:31:02 9.7 C 7.01 g/m*3 9.7 C 0 km/h
654 15-11-2008 10:43:03 9.8 C 7.05 g/m*3 9.8 C 0 km/h
655 15-11-2008 10:55:01 9.8 C 7.05 g/m*3 9.8 C 0 km/h
656 15-11-2008 11:07:02 9.8 C 7.05 g/m*3 9.8 C 0 km/h
657 15-11-2008 11:19:01 9.9 C 7.1 g/m*3 9.9 C 0 km/h
658 15-11-2008 11:31:02 10.1 C 7.09 g/m*3 10.1 C 0 km/h
659 15-11-2008 11:43:02 10.2 C 7.04 g/m*3 10.2 C 0 km/h
660 15-11-2008 11:55:02 10.4 C 7.13 g/m*3 10.4 C 0 km/h
661 15-11-2008 12:07:02 10.4 C 7.04 g/m*3 10.4 C 0 km/h
662 15-11-2008 12:19:02 10.6 C 7.03 g/m*3 10.6 C 0 km/h
663 15-11-2008 12:31:02 10.6 C 7.03 g/m*3 10.6 C 0 km/h
664 15-11-2008 12:43:02 10.7 C 7.07 g/m*3 10.7 C 0 km/h
665 15-11-2008 12:55:02 10.8 C 7.02 g/m*3 10.8 C 0 km/h
666 15-11-2008 13:07:01 11 C 6.91 g/m*3 11 C 0 km/h
667 15-11-2008 13:19:02 11 C 6.81 g/m*3 11 C 0 km/h
668 15-11-2008 13:31:02 11.1 C 6.85 g/m*3 11.1 C 0 km/h
669 15-11-2008 13:43:02 11.2 C 6.79 g/m*3 11.2 C 0 km/h
670 15-11-2008 13:55:02 11.3 C 6.83 g/m*3 11.3 C 0 km/h
671 15-11-2008 14:07:02 11.3 C 6.83 g/m*3 11.3 C 0 km/h
672 15-11-2008 14:19:02 11.3 C 6.83 g/m*3 11.3 C 0 km/h
673 15-11-2008 14:31:02 11.4 C 6.88 g/m*3 11.4 C 0 km/h
674 15-11-2008 14:43:02 11.4 C 6.88 g/m*3 11.4 C 0 km/h
675 15-11-2008 14:55:02 11.4 C 6.88 g/m*3 11.4 C 0 km/h
Sensor: Nr:Datum:Temp:Abs-Feuchte:Windchill:Wind:
Aussen-T/F 676 15-11-2008 15:07:02 11.3 C 6.94 g/m*3 11.3 C 0 km/h
677 15-11-2008 15:19:02 11.3 C 6.94 g/m*3 11.3 C 0 km/h
678 15-11-2008 15:31:02 11.3 C 6.94 g/m*3 11.3 C 0 km/h
679 15-11-2008 15:43:02 11.2 C 6.99 g/m*3 11.2 C 0 km/h
680 15-11-2008 15:55:02 11.2 C 6.99 g/m*3 11.2 C 0 km/h
681 15-11-2008 16:07:02 11.1 C 7.05 g/m*3 11.1 C 0 km/h
682 15-11-2008 16:19:02 11 C 7.01 g/m*3 11 C 0 km/h
683 15-11-2008 16:31:02 11 C 7.11 g/m*3 11 C 0 km/h
684 15-11-2008 16:43:02 11 C 7.11 g/m*3 11 C 0 km/h
685 15-11-2008 16:55:01 11 C 7.11 g/m*3 11 C 0 km/h
686 15-11-2008 17:07:02 10.9 C 7.16 g/m*3 10.9 C 0 km/h
687 15-11-2008 17:19:02 10.9 C 7.26 g/m*3 10.9 C 0 km/h
688 15-11-2008 17:31:02 10.9 C 7.26 g/m*3 10.9 C 0 km/h
689 15-11-2008 17:43:02 10.8 C 7.22 g/m*3 10.8 C 0 km/h
690 15-11-2008 17:55:02 10.8 C 7.31 g/m*3 10.8 C 0 km/h
691 15-11-2008 18:07:03 10.8 C 7.31 g/m*3 10.8 C 0 km/h
692 15-11-2008 18:19:02 10.7 C 7.27 g/m*3 10.7 C 0 km/h
693 15-11-2008 18:31:03 10.8 C 7.31 g/m*3 10.8 C 0 km/h
694 15-11-2008 18:43:03 10.7 C 7.27 g/m*3 10.7 C 0 km/h
695 15-11-2008 18:55:02 10.7 C 7.27 g/m*3 10.7 C 0 km/h
696 15-11-2008 19:07:02 10.7 C 7.27 g/m*3 10.7 C 0 km/h
697 15-11-2008 19:19:02 10.7 C 7.27 g/m*3 10.7 C 0 km/h
698 15-11-2008 19:31:02 10.7 C 7.27 g/m*3 10.7 C 0 km/h
699 15-11-2008 19:43:02 10.7 C 7.27 g/m*3 10.7 C 0 km/h
700 15-11-2008 19:55:01 10.7 C 7.37 g/m*3 10.7 C 0 km/h
Sensor: Nr:Datum:Temp:Abs-Feuchte:Windchill:Wind:
Aussen-T/F 701 15-11-2008 20:07:02 10.7 C 7.37 g/m*3 10.7 C 0 km/h
702 15-11-2008 20:19:01 10.6 C 7.32 g/m*3 10.6 C 0 km/h
703 15-11-2008 20:31:01 10.6 C 7.32 g/m*3 10.6 C 0 km/h
704 15-11-2008 20:43:01 10.6 C 7.42 g/m*3 10.6 C 0 km/h
705 15-11-2008 20:55:02 10.6 C 7.42 g/m*3 10.6 C 0 km/h
706 15-11-2008 21:07:02 10.5 C 7.47 g/m*3 10.5 C 0 km/h
707 15-11-2008 21:19:02 10.5 C 7.47 g/m*3 10.5 C 0 km/h
708 15-11-2008 21:31:02 10.5 C 7.47 g/m*3 10.5 C 0 km/h
709 15-11-2008 21:43:02 10.5 C 7.57 g/m*3 10.5 C 0 km/h
710 15-11-2008 21:55:02 10.5 C 7.57 g/m*3 10.5 C 0 km/h
711 15-11-2008 22:07:01 10.5 C 7.57 g/m*3 10.5 C 0 km/h
712 15-11-2008 22:19:02 10.5 C 7.57 g/m*3 10.5 C 0 km/h
713 15-11-2008 22:31:01 10.5 C 7.57 g/m*3 10.5 C 0 km/h
714 15-11-2008 22:43:01 10.4 C 7.52 g/m*3 10.4 C 0 km/h
715 15-11-2008 22:55:02 10.4 C 7.61 g/m*3 10.4 C 0 km/h
716 15-11-2008 23:07:01 10.4 C 7.61 g/m*3 10.4 C 0 km/h
717 15-11-2008 23:20:02 10.4 C 7.61 g/m*3 10.4 C 0 km/h
718 15-11-2008 23:32:02 10.4 C 7.61 g/m*3 10.4 C 0 km/h
719 15-11-2008 23:44:02 10.4 C 7.61 g/m*3 10.4 C 0 km/h
720 15-11-2008 23:56:03 10.3 C 7.66 g/m*3 10.3 C 0 km/h
721 16-11-2008 00:08:03 10.2 C 7.71 g/m*3 10.2 C 0 km/h
722 16-11-2008 00:20:03 10.1 C 7.85 g/m*3 10.1 C 0 km/h
723 16-11-2008 00:32:03 10 C 7.8 g/m*3 10 C 0 km/h
724 16-11-2008 00:44:03 10.1 C 7.94 g/m*3 10.1 C 0 km/h
725 16-11-2008 00:56:03 10 C 7.89 g/m*3 10 C 0 km/h
Sensor: Nr:Datum:Temp:Abs-Feuchte:Windchill:Wind:
Aussen-T/F 726 16-11-2008 01:08:03 10.1 C 7.94 g/m*3 10.1 C 0 km/h
727 16-11-2008 01:20:03 10.1 C 7.94 g/m*3 10.1 C 0 km/h
728 16-11-2008 01:32:03 10.1 C 7.94 g/m*3 10.1 C 0 km/h
729 16-11-2008 01:44:03 10.1 C 7.94 g/m*3 10.1 C 0 km/h
730 16-11-2008 01:56:03 10 C 7.99 g/m*3 10 C 0 km/h
731 16-11-2008 02:08:03 9.9 C 8.12 g/m*3 9.9 C 0 km/h
732 16-11-2008 02:20:03 10 C 8.08 g/m*3 10 C 0 km/h
733 16-11-2008 02:32:03 10.1 C 8.13 g/m*3 10.1 C 0 km/h
734 16-11-2008 02:44:03 10.2 C 8.18 g/m*3 10.2 C 0 km/h
735 16-11-2008 02:56:03 10.3 C 8.14 g/m*3 10.3 C 0 km/h
736 16-11-2008 03:08:03 10.3 C 8.04 g/m*3 10.3 C 0 km/h
737 16-11-2008 03:20:03 10.4 C 8 g/m*3 10.4 C 0 km/h
738 16-11-2008 03:32:03 10.4 C 8 g/m*3 10.4 C 0 km/h
739 16-11-2008 03:44:04 10.4 C 7.9 g/m*3 10.4 C 0 km/h
740 16-11-2008 03:56:04 10.4 C 7.9 g/m*3 10.4 C 0 km/h
741 16-11-2008 04:08:04 10.4 C 7.9 g/m*3 10.4 C 0 km/h
742 16-11-2008 04:20:04 10.5 C 7.95 g/m*3 10.5 C 0 km/h
743 16-11-2008 04:32:04 10.4 C 7.9 g/m*3 10.4 C 0 km/h
744 16-11-2008 04:44:04 10.5 C 7.95 g/m*3 10.5 C 0 km/h
745 16-11-2008 04:56:04 10.6 C 7.91 g/m*3 10.6 C 0 km/h
746 16-11-2008 05:08:04 10.7 C 7.86 g/m*3 10.7 C 0 km/h
747 16-11-2008 05:20:04 10.7 C 7.86 g/m*3 10.7 C 0 km/h
748 16-11-2008 05:32:04 10.7 C 7.86 g/m*3 10.7 C 0 km/h
749 16-11-2008 05:44:04 10.8 C 7.91 g/m*3 10.8 C 0 km/h
750 16-11-2008 05:56:04 10.8 C 7.81 g/m*3 10.8 C 0 km/h
Sensor: Nr:Datum:Temp:Abs-Feuchte:Windchill:Wind:
Aussen-T/F 751 16-11-2008 06:08:04 10.7 C 7.86 g/m*3 10.7 C 0 km/h
752 16-11-2008 06:20:04 10.5 C 7.86 g/m*3 10.5 C 0 km/h
753 16-11-2008 06:32:04 10.2 C 7.99 g/m*3 10.2 C 0 km/h
754 16-11-2008 06:44:04 10.3 C 8.14 g/m*3 10.3 C 0 km/h
755 16-11-2008 06:56:04 10.4 C 8.1 g/m*3 10.4 C 0 km/h
756 16-11-2008 07:08:04 10.5 C 8.15 g/m*3 10.5 C 0 km/h
757 16-11-2008 07:20:04 10.6 C 8.1 g/m*3 10.6 C 0 km/h
758 16-11-2008 07:32:04 10.7 C 8.05 g/m*3 10.7 C 0 km/h
759 16-11-2008 07:44:05 10.7 C 8.05 g/m*3 10.7 C 0 km/h
760 16-11-2008 07:56:05 10.8 C 8.11 g/m*3 10.8 C 0 km/h
761 16-11-2008 08:08:05 10.9 C 8.06 g/m*3 10.9 C 0 km/h
762 16-11-2008 08:20:01 11 C 8.01 g/m*3 11 C 0 km/h
763 16-11-2008 08:32:01 11.1 C 8.06 g/m*3 11.1 C 0 km/h
764 16-11-2008 08:44:01 11.2 C 8.01 g/m*3 11.2 C 0 km/h
765 16-11-2008 08:56:01 11.2 C 8.01 g/m*3 11.2 C 0 km/h
766 16-11-2008 09:08:01 11.2 C 8.01 g/m*3 11.2 C 0 km/h
767 16-11-2008 09:20:01 11.4 C 8.01 g/m*3 11.4 C 0 km/h
768 16-11-2008 09:32:01 11.7 C 8.16 g/m*3 11.7 C 0 km/h
769 16-11-2008 09:44:01 11.6 C 8.11 g/m*3 11.6 C 0 km/h
770 16-11-2008 09:56:02 11.6 C 8.21 g/m*3 11.6 C 0 km/h
771 16-11-2008 10:08:02 11.4 C 8.21 g/m*3 11.4 C 0 km/h
772 16-11-2008 10:20:02 11.2 C 8.21 g/m*3 11.2 C 0 km/h
773 16-11-2008 10:32:02 10.9 C 8.45 g/m*3 10.9 C 0 km/h
774 16-11-2008 10:44:02 10.7 C 8.64 g/m*3 10.7 C 0 km/h
775 16-11-2008 10:56:03 10.7 C 8.74 g/m*3 10.7 C 0 km/h
Sensor: Nr:Datum:Temp:Abs-Feuchte:Windchill:Wind:
Aussen-T/F 776 16-11-2008 11:08:03 10.8 C 8.9 g/m*3 10.8 C 0 km/h
777 16-11-2008 11:20:02 10.9 C 8.95 g/m*3 10.9 C 0 km/h
778 16-11-2008 11:32:02 11.1 C 9.07 g/m*3 11.1 C 0 km/h
779 16-11-2008 11:44:02 11.6 C 9.46 g/m*3 11.6 C 0 km/h
780 16-11-2008 11:56:02 12.2 C 9.71 g/m*3 12.2 C 0 km/h
781 16-11-2008 12:08:02 12.4 C 9.62 g/m*3 12.4 C 0 km/h
782 16-11-2008 12:20:02 12.5 C 9.46 g/m*3 12.5 C 0 km/h
783 16-11-2008 12:32:02 12.7 C 9.35 g/m*3 12.7 C 0 km/h
784 16-11-2008 12:44:02 12.7 C 9.35 g/m*3 12.7 C 0 km/h
785 16-11-2008 12:56:01 12.7 C 9.24 g/m*3 12.7 C 0 km/h
786 16-11-2008 13:08:02 12.7 C 9.13 g/m*3 12.7 C 0 km/h
787 16-11-2008 13:20:01 12.7 C 9.02 g/m*3 12.7 C 0 km/h
788 16-11-2008 13:32:02 12.4 C 8.85 g/m*3 12.4 C 0 km/h
789 16-11-2008 13:44:02 12.3 C 8.8 g/m*3 12.3 C 0 km/h
790 16-11-2008 13:56:01 12.1 C 8.79 g/m*3 12.1 C 0 km/h
791 16-11-2008 14:08:02 11.5 C 8.88 g/m*3 11.5 C 0 km/h
792 16-11-2008 14:20:01 10.9 C 8.65 g/m*3 10.9 C 0 km/h
793 16-11-2008 14:32:01 10.7 C 8.64 g/m*3 10.7 C 0 km/h
794 16-11-2008 14:44:01 10.4 C 8.58 g/m*3 10.4 C 0 km/h
795 16-11-2008 14:56:01 10.4 C 8.58 g/m*3 10.4 C 0 km/h
796 16-11-2008 15:08:02 10.3 C 8.62 g/m*3 10.3 C 0 km/h
797 16-11-2008 15:20:01 10.1 C 8.51 g/m*3 10.1 C 0 km/h
798 16-11-2008 15:32:02 10.1 C 8.61 g/m*3 10.1 C 0 km/h
799 16-11-2008 15:44:02 10 C 8.55 g/m*3 10 C 0 km/h
800 16-11-2008 15:56:02 9.9 C 8.68 g/m*3 9.9 C 0 km/h
Sensor: Nr:Datum:Temp:Abs-Feuchte:Windchill:Wind:
Aussen-T/F 801 16-11-2008 16:08:02 9.7 C 8.57 g/m*3 9.7 C 0 km/h
802 16-11-2008 16:20:02 9.6 C 8.43 g/m*3 9.6 C 0 km/h
803 16-11-2008 16:32:02 9.6 C 8.52 g/m*3 9.6 C 0 km/h
804 16-11-2008 16:44:02 9.5 C 8.37 g/m*3 9.5 C 0 km/h
805 16-11-2008 16:56:02 9.4 C 8.32 g/m*3 9.4 C 0 km/h
806 16-11-2008 17:08:02 9.1 C 7.99 g/m*3 9.1 C 0 km/h
807 16-11-2008 17:20:02 9.2 C 8.04 g/m*3 9.2 C 0 km/h
808 16-11-2008 17:32:02 9.2 C 7.95 g/m*3 9.2 C 0 km/h
809 16-11-2008 17:44:02 9.3 C 7.91 g/m*3 9.3 C 0 km/h
810 16-11-2008 17:56:02 9.1 C 7.72 g/m*3 9.1 C 0 km/h
811 16-11-2008 18:08:02 8.9 C 7.62 g/m*3 8.9 C 0 km/h
812 16-11-2008 18:20:02 8.8 C 7.66 g/m*3 8.8 C 0 km/h
813 16-11-2008 18:32:02 8.9 C 7.71 g/m*3 8.9 C 0 km/h
814 16-11-2008 18:44:02 8.9 C 7.71 g/m*3 8.9 C 0 km/h
815 16-11-2008 18:56:02 8.8 C 7.66 g/m*3 8.8 C 0 km/h
816 16-11-2008 19:08:03 8.5 C 7.43 g/m*3 8.5 C 0 km/h
817 16-11-2008 19:20:02 8.3 C 7.25 g/m*3 8.3 C 0 km/h
818 16-11-2008 19:32:02 8.2 C 7.29 g/m*3 8.2 C 0 km/h
819 16-11-2008 19:44:02 8.3 C 7.42 g/m*3 8.3 C 0 km/h
820 16-11-2008 19:56:02 8.6 C 7.39 g/m*3 8.6 C 0 km/h
821 16-11-2008 20:08:01 8.8 C 7.22 g/m*3 8.8 C 0 km/h
822 16-11-2008 20:20:02 8.9 C 7.01 g/m*3 8.9 C 0 km/h
823 16-11-2008 20:32:02 8.7 C 6.92 g/m*3 8.7 C 0 km/h
824 16-11-2008 20:44:02 8.7 C 6.83 g/m*3 8.7 C 0 km/h
825 16-11-2008 20:56:02 8.8 C 6.88 g/m*3 8.8 C 0 km/h
Sensor: Nr:Datum:Temp:Abs-Feuchte:Windchill:Wind:
Aussen-T/F 826 16-11-2008 21:08:02 8.8 C 6.79 g/m*3 8.8 C 0 km/h
827 16-11-2008 21:20:02 8.1 C 5.91 g/m*3 8.1 C 0 km/h
828 16-11-2008 21:32:02 7.6 C 5.8 g/m*3 7.6 C 0 km/h
829 16-11-2008 21:44:03 7.3 C 5.77 g/m*3 7.3 C 0 km/h
830 16-11-2008 21:56:02 7 C 5.81 g/m*3 7 C 0 km/h
831 16-11-2008 22:08:01 6.8 C 5.81 g/m*3 6.8 C 0 km/h
832 16-11-2008 22:20:01 6.7 C 5.77 g/m*3 6.7 C 0 km/h
833 16-11-2008 22:32:01 6.5 C 5.7 g/m*3 6.5 C 0 km/h
834 16-11-2008 22:44:01 6.3 C 5.7 g/m*3 6.3 C 0 km/h
835 16-11-2008 22:56:01 6.1 C 5.63 g/m*3 6.1 C 0 km/h
836 16-11-2008 23:08:01 5.8 C 5.73 g/m*3 5.8 C 0 km/h
837 16-11-2008 23:20:01 5.8 C 5.73 g/m*3 5.8 C 0 km/h
838 16-11-2008 23:32:01 5.9 C 5.7 g/m*3 5.9 C 0 km/h
839 16-11-2008 23:44:01 5.8 C 5.66 g/m*3 5.8 C 0 km/h
840 16-11-2008 23:56:01 5.6 C 5.59 g/m*3 5.6 C 0 km/h

Legende:
   Min
   Max


Maximal/Minimal-Werte vom 17.04.2019 - 19.05.2019

Sensor Min Max Avg
Temp
(Aussen-T/F)
2.2 °C
13-05-2019  06:50:00
26.6 °C
24-04-2019  17:05:00
11.51 °C

Die Daten stammen von einer Davis Vantage Pro 2 Wetter-Station und werden unter Linux mit der Software wview2wettercgi und aufbereitet. Alle Angaben erfolgen ohne Gewähr für ihre Vollständigkeit oder Richtigkeit.
Kontakt: Rainer Krienke krienke@uni-koblenz.de . Meine Webseiten an der Uni Koblenz oder privat.
Version: $Revision: 0.78 $